CAPE
nan nan nan nan nan nan nan nan nan nan nan nan nan nan nan nan nan nan nan nan nan nan nan nan nan nan nan nan nan nan nan nan nan nan nan nan nan nan nan nan nan nan nan nan nan nan nan nan nan nan nan nan nan nan nan nan nan 0 1 5 5 9 6 1 1 nan nan nan nan nan nan nan nan nan nan nan nan nan nan nan nan nan nan nan nan nan
nan nan nan nan nan nan nan nan nan nan nan nan nan nan nan nan nan nan nan nan nan nan nan nan nan nan nan nan nan nan nan nan nan nan nan nan nan nan nan nan nan nan nan nan nan nan nan nan nan nan nan nan nan nan 0 0 0 0 1 3 3 5 3 0 0 nan nan nan nan nan nan nan nan nan nan nan nan nan nan nan nan nan nan nan nan nan
nan nan nan nan nan nan nan nan nan nan nan nan nan nan nan nan nan nan nan nan nan nan nan nan nan nan nan nan nan nan nan nan nan nan nan nan nan nan nan nan nan nan nan nan nan nan nan nan nan nan nan nan nan nan 0 0 0 0 1 3 3 4 3 0 0 nan nan nan nan nan nan nan nan nan 0 0 0 0 0 nan nan nan 0 1 1 1
nan nan nan nan nan nan nan nan nan nan nan nan nan nan nan nan nan nan nan nan nan nan nan nan nan nan nan nan nan nan nan nan nan nan nan nan nan nan nan nan nan nan nan nan nan nan nan nan nan nan nan nan nan nan nan nan nan 0 1 3 3 4 4 1 1 nan nan nan nan nan nan nan nan nan 0 0 0 0 0 0 0 0 1 1 1 0
nan nan nan nan nan nan nan nan nan nan nan nan nan nan nan nan nan nan nan nan nan nan nan nan nan nan nan nan nan nan nan nan nan nan nan nan nan nan nan nan nan nan nan nan nan nan nan nan nan nan nan nan nan nan nan nan nan 0 0 1 1 3 4 3 3 1 0 nan nan nan nan nan nan nan nan 0 0 0 0 0 0 0 1 2 2 1
nan nan nan nan nan nan nan nan nan nan nan nan nan nan nan nan nan nan nan nan nan nan nan nan nan nan nan nan nan nan nan nan nan nan nan nan nan nan nan nan nan nan nan nan nan nan nan nan nan nan nan nan nan nan nan nan nan 0 0 1 1 3 3 3 3 3 3 2 0 0 nan nan nan nan nan 0 0 0 0 0 0 0 1 1 1 1
nan nan nan nan nan nan nan nan nan nan nan nan nan nan nan nan nan nan nan nan nan nan nan nan nan nan nan nan nan nan nan nan nan nan nan nan nan nan nan nan nan nan nan nan nan nan nan nan nan nan nan nan nan nan nan nan nan 0 0 1 1 2 4 4 4 3 3 3 3 3 1 nan nan nan nan nan 0 0 0 0 0 0 0 1 1 1
nan nan nan nan nan nan nan nan nan nan nan nan nan nan nan nan nan nan nan nan nan nan nan nan nan nan nan nan nan nan nan nan nan nan nan nan nan nan nan nan nan nan nan nan nan nan nan nan nan nan nan nan nan nan nan nan nan nan 0 1 1 2 3 3 3 4 3 3 3 3 4 5 3 3 0 nan 0 0 0 1 1 0 nan nan nan nan
nan nan nan nan nan nan nan nan nan nan nan nan nan nan nan nan nan nan nan nan nan nan nan nan nan nan nan nan nan nan nan nan nan nan nan nan nan nan nan nan nan nan nan nan nan nan nan nan nan nan nan nan nan nan nan nan nan nan 0 1 1 1 2 3 3 3 2 3 3 3 3 4 5 5 4 1 0 0 0 0 0 0 0 nan nan nan
nan nan nan nan nan nan nan nan nan nan nan nan nan nan nan nan nan nan nan nan nan nan nan nan nan nan nan nan nan nan nan nan nan nan nan nan nan nan nan nan nan nan nan nan nan nan nan nan nan nan nan nan nan nan nan nan nan nan 0 0 0 1 1 2 2 2 2 2 2 2 3 3 4 4 5 6 3 3 1 1 1 0 0 nan nan nan
nan nan nan nan nan nan nan nan nan nan nan nan nan nan nan nan nan nan nan nan nan nan nan nan nan nan nan nan nan nan nan nan nan nan nan nan nan nan nan nan nan nan nan nan nan nan nan nan nan nan nan nan nan nan nan nan nan nan nan 0 0 0 0 1 1 1 1 1 2 2 2 3 3 3 4 6 7 7 5 3 3 1 0 nan nan nan
nan nan nan nan nan nan nan nan nan nan nan nan nan nan nan nan nan nan nan nan nan nan nan nan nan nan nan nan nan nan nan nan nan nan nan nan nan nan nan nan nan nan nan nan nan nan nan nan nan nan nan nan nan nan nan nan nan nan nan 0 0 0 0 0 0 0 0 0 1 1 1 2 3 3 4 5 6 6 8 7 7 4 1 0 0 nan
nan nan nan nan nan nan nan nan nan nan nan nan nan nan nan nan nan nan nan nan nan nan nan nan nan nan nan nan nan nan nan nan nan nan nan nan nan nan nan nan nan nan nan nan nan nan nan nan nan nan nan nan nan nan nan nan nan nan nan 0 0 0 0 0 0 0 0 0 0 0 0 1 2 2 3 5 6 6 6 7 7 7 5 2 2 0
nan nan nan nan nan nan nan nan nan nan nan nan nan nan nan nan nan nan nan nan nan nan nan nan nan nan nan nan nan nan nan nan nan nan nan nan nan nan nan nan nan nan nan nan nan nan nan nan nan nan nan nan nan nan nan nan nan nan nan 0 0 0 0 0 0 nan nan nan nan nan 0 0 1 1 2 5 5 5 6 6 6 7 6 5 5 2
nan nan nan nan nan nan nan nan nan nan nan nan nan nan nan nan nan nan nan nan nan nan nan nan nan nan nan nan nan nan nan nan nan nan nan nan nan nan nan nan nan nan nan nan nan nan nan nan nan nan nan nan nan nan nan nan nan nan 0 0 0 0 0 nan nan nan nan nan nan nan nan 0 1 1 2 3 5 5 6 6 6 6 5 5 5 5
nan nan nan nan nan nan nan nan nan nan nan nan nan nan nan nan nan nan nan nan nan nan nan nan nan nan nan nan nan nan nan nan nan nan nan nan nan nan nan nan nan nan nan nan nan nan nan nan nan nan nan nan nan nan nan nan nan nan 0 0 0 0 nan nan nan nan nan nan nan nan nan nan 0 0 1 3 4 4 5 5 5 5 4 4 4 5
nan nan nan nan nan nan nan nan nan nan nan nan nan nan nan nan nan nan nan nan nan nan nan nan nan nan nan nan nan nan nan nan nan nan nan nan nan nan nan nan nan nan nan nan nan nan nan nan nan nan nan nan nan nan nan nan nan nan 1 0 0 0 nan nan nan nan nan nan nan nan nan nan nan nan 0 2 3 3 4 4 4 4 3 3 3 4
nan nan nan nan nan nan nan nan nan nan nan nan nan nan nan nan nan nan nan nan nan nan nan nan nan nan nan nan nan nan nan nan nan nan nan nan nan nan nan nan nan nan nan nan nan nan nan nan nan nan nan nan nan nan nan nan nan nan 0 1 1 nan nan nan nan nan nan nan nan nan nan nan nan nan 0 1 3 3 4 4 4 3 2 2 2 3
nan nan nan nan nan nan nan nan nan nan nan nan nan nan nan nan nan nan nan nan nan nan nan nan nan nan nan nan nan nan nan nan nan nan nan nan nan nan nan nan nan nan nan nan nan nan nan nan nan nan nan nan nan nan nan nan nan nan 0 0 0 nan nan nan nan nan nan nan nan nan nan nan nan nan nan 0 1 1 2 3 3 3 2 2 2 2
nan nan nan nan nan nan nan nan nan nan nan nan nan nan nan nan nan nan nan nan nan nan nan nan nan nan nan nan nan nan nan nan nan nan nan nan nan nan nan nan nan nan nan nan nan nan nan nan nan nan nan nan nan nan nan nan nan nan nan nan nan nan nan nan nan nan nan nan nan nan nan nan nan nan nan 0 1 1 2 2 2 2 2 2 2 2
nan nan nan nan nan nan nan nan nan nan nan nan nan nan nan nan nan nan nan nan nan nan nan nan nan nan nan nan nan nan nan nan nan nan nan nan nan nan nan nan nan nan nan nan nan nan nan nan nan nan nan nan nan nan nan nan nan nan nan nan nan nan nan nan nan nan nan nan nan nan nan nan nan nan nan nan 0 0 1 1 1 1 2 2 2 3
nan nan nan nan nan nan nan nan nan nan nan nan nan nan nan nan nan nan nan nan nan nan nan nan nan nan nan nan nan nan nan nan nan nan nan nan nan nan nan nan nan nan nan nan nan nan nan nan nan nan nan nan nan nan nan nan nan nan nan nan nan nan nan nan nan nan nan nan nan nan nan nan nan nan nan nan nan nan 0 0 0 1 1 3 3 3
nan nan nan nan nan nan nan nan nan nan nan nan nan nan nan nan nan nan nan nan nan nan nan nan nan nan nan nan nan nan nan nan nan nan nan nan nan nan nan nan nan nan nan nan nan nan nan nan nan nan nan nan nan nan nan nan nan nan nan nan nan nan nan nan nan nan nan nan nan nan nan nan nan nan nan nan nan nan nan 0 0 0 2 3 3 4
nan nan nan nan nan nan nan nan nan nan nan nan nan nan nan nan nan nan nan nan nan nan nan nan nan nan nan nan nan nan nan nan nan nan nan nan nan nan nan nan nan nan nan nan nan nan nan nan nan nan nan nan nan nan nan nan nan nan nan nan nan nan nan nan nan nan nan nan nan nan nan nan nan nan nan nan nan nan nan nan nan 0 2 3 3 2
nan nan nan nan nan nan nan nan nan nan nan nan nan nan nan nan nan nan nan nan nan nan nan nan nan nan nan nan nan nan nan nan nan nan nan nan nan nan nan nan nan nan nan nan nan nan nan nan nan nan nan nan nan nan nan nan nan nan nan nan nan nan nan nan nan nan nan nan nan nan nan nan nan nan nan nan nan nan nan nan nan 0 2 2 2 2
nan nan nan nan nan nan nan nan nan nan nan nan nan nan nan nan nan nan nan nan nan nan nan nan nan nan nan nan nan nan nan nan nan nan nan nan nan nan nan nan nan nan nan nan nan nan nan nan nan nan nan nan nan nan nan nan nan nan nan nan nan nan nan nan nan nan nan nan nan nan nan nan nan nan nan nan nan nan nan nan nan 0 2 2 2 1
nan nan nan nan nan nan nan nan nan nan nan nan nan nan nan nan nan nan nan nan nan nan nan nan nan nan nan nan nan nan nan nan nan nan nan nan nan nan nan nan nan nan nan nan nan nan nan nan nan nan nan nan nan nan nan nan nan nan nan nan nan nan nan nan nan nan nan nan nan nan nan nan nan nan nan nan nan nan nan nan nan 1 2 2 2 1
nan nan nan nan nan nan nan nan nan nan nan nan nan nan nan nan nan nan nan nan nan nan nan nan nan nan nan nan nan nan nan nan nan nan nan nan nan nan nan nan nan nan nan nan nan nan nan nan nan nan nan nan nan nan nan nan nan nan nan nan nan nan nan nan nan nan nan nan nan nan nan nan nan nan nan nan nan nan nan 0 0 1 2 nan nan nan
1 1 2 1 1 1 nan nan nan nan nan nan nan nan nan nan nan nan nan nan nan nan nan nan nan nan nan nan nan nan nan nan nan nan nan nan nan nan nan nan nan nan nan nan nan nan nan nan nan nan nan nan nan nan nan nan nan nan nan nan nan nan nan nan nan nan nan nan nan nan nan nan nan nan nan nan nan nan nan 0 0 2 1 nan nan nan
nan nan nan nan nan nan nan nan nan nan nan nan nan nan nan nan nan nan nan nan nan nan nan nan nan nan nan nan nan nan nan nan nan nan nan nan nan nan nan nan nan nan nan nan nan nan nan nan nan nan nan nan nan nan nan nan nan nan nan nan nan nan nan nan nan nan nan nan nan nan nan nan nan nan nan nan nan nan nan 0 0 0 nan nan nan nan
nan nan nan nan nan nan nan nan nan nan nan nan nan nan nan nan nan nan nan nan nan nan nan nan nan nan nan nan nan nan nan nan nan nan nan nan nan nan nan nan nan nan nan nan nan nan nan nan nan nan nan nan nan nan nan nan nan nan nan nan nan nan nan nan nan nan nan nan nan nan nan nan nan nan nan nan nan nan nan 0 0 0 nan nan nan nan
nan nan nan nan nan nan nan nan nan nan nan nan nan nan nan nan nan nan nan nan nan nan nan nan nan nan nan nan nan nan nan nan nan nan nan nan nan nan nan nan nan nan nan nan nan nan nan nan nan nan nan nan nan nan nan nan nan nan nan nan nan nan nan nan nan nan nan nan nan nan nan nan nan nan nan nan 0 0 0 0 0 0 nan nan nan nan
nan nan nan nan nan nan nan nan nan nan nan nan nan nan nan nan nan nan nan nan nan nan nan nan nan nan nan nan nan nan nan nan nan nan nan nan nan nan nan nan nan nan nan nan nan nan nan nan nan nan nan nan nan nan nan nan nan nan nan nan nan nan nan nan nan nan nan nan nan nan nan nan nan nan 0 0 1 1 1 1 1 1 0 nan nan nan
nan nan nan nan nan nan nan nan nan nan nan nan nan nan nan nan nan nan nan nan nan nan nan nan nan nan nan nan nan nan nan nan nan nan nan nan nan nan nan nan nan nan nan nan nan nan nan nan nan nan nan nan nan nan nan nan nan nan nan nan nan nan nan nan nan nan nan nan nan nan nan nan nan nan nan 0 2 2 2 2 2 1 0 nan nan nan
nan nan nan nan nan nan nan nan nan nan nan nan nan nan nan nan nan nan nan nan nan nan nan nan nan nan nan nan nan nan nan nan nan nan nan nan nan nan 1 nan nan nan nan nan nan nan nan nan nan nan nan nan nan nan nan nan nan nan nan nan nan nan nan nan nan nan nan nan nan nan nan nan nan nan nan nan 3 3 5 4 4 1 0 0 0 nan
nan nan nan nan nan nan nan nan nan nan nan nan nan nan nan nan nan nan nan nan nan nan nan nan nan nan nan nan nan nan nan nan nan nan nan nan nan nan 1 1 1 nan 0 0 0 0 nan nan nan nan nan nan nan nan nan nan nan nan nan nan nan nan nan nan nan nan nan nan nan nan nan nan nan nan nan 0 2 2 4 3 3 2 0 0 0 0
nan nan nan nan nan nan nan nan nan nan nan nan nan nan nan nan nan nan nan nan nan nan nan nan nan nan nan nan nan nan nan nan nan nan nan nan nan nan 0 1 1 4 1 1 1 0 nan nan nan nan nan nan nan nan nan nan nan nan nan nan nan nan nan nan nan nan nan nan nan nan nan nan nan nan nan nan nan nan 0 1 1 0 1 1 1 1
nan nan nan nan nan nan nan nan nan nan nan nan nan nan nan nan nan nan nan nan nan nan nan nan nan nan nan nan nan nan nan nan nan nan nan nan nan nan nan nan nan 3 nan nan nan nan nan nan nan nan nan nan nan nan nan nan nan nan nan nan nan nan nan nan nan nan nan nan nan nan nan nan nan nan nan nan nan nan nan nan nan nan nan 0 0 3
nan nan nan nan nan nan nan nan nan nan nan nan nan nan nan nan nan nan nan nan nan nan nan nan nan nan nan nan nan nan nan nan nan nan nan nan nan nan nan nan nan nan nan nan nan nan nan nan nan nan nan nan nan nan nan nan nan nan nan nan nan nan nan nan nan nan nan nan nan nan nan nan nan nan nan nan nan nan nan nan nan nan nan nan nan nan
nan nan nan nan nan nan nan nan nan nan nan nan nan nan nan nan nan nan nan nan nan nan nan nan nan nan nan nan nan nan nan nan nan nan nan nan nan nan nan nan nan nan nan nan nan nan nan nan nan 0 0 nan nan nan nan nan nan nan nan nan nan nan nan nan nan nan nan nan nan nan nan nan nan nan nan nan nan nan nan nan nan nan nan nan nan nan
nan nan nan nan nan nan nan nan nan nan nan nan nan nan nan nan nan nan nan nan nan nan nan nan nan nan nan nan nan nan nan nan nan nan nan nan nan nan nan nan nan nan nan nan nan nan nan nan nan nan 0 nan 0 0 nan nan nan 1 5 nan nan nan nan nan nan nan nan nan nan nan nan nan nan nan nan nan nan nan nan nan nan nan nan nan nan nan
nan nan nan nan nan nan nan nan nan nan nan nan nan nan nan nan nan nan nan nan nan nan nan nan nan nan nan nan nan nan nan nan nan nan nan nan nan nan nan nan nan nan nan nan nan nan nan nan nan nan nan 0 0 0 0 0 0 2 1 nan nan nan nan nan nan nan nan nan nan nan nan nan nan nan nan nan nan nan nan nan nan nan nan nan nan nan
nan nan nan nan nan nan nan nan nan nan nan nan nan nan nan nan nan nan nan nan nan nan nan nan nan nan nan nan nan nan nan nan nan nan nan nan nan nan nan nan nan nan nan nan nan nan nan nan nan nan nan nan nan nan 0 1 1 1 nan 0 0 nan nan nan nan nan nan nan nan nan nan nan nan nan nan nan nan nan nan nan nan nan nan nan nan nan
nan nan nan nan nan nan nan nan nan nan nan nan nan nan nan nan nan nan nan nan nan nan nan nan nan nan nan nan nan nan nan nan nan nan nan nan nan nan nan nan nan nan nan nan nan nan nan nan nan nan nan 0 0 0 2 2 2 nan nan nan nan nan nan nan nan nan nan nan nan nan nan nan nan nan nan nan nan nan nan nan nan nan nan nan nan nan
nan nan nan nan nan nan nan nan nan nan nan nan nan nan nan nan nan nan nan nan nan nan nan nan nan nan nan nan nan nan nan nan nan nan nan nan nan nan nan nan nan nan nan nan nan nan nan nan nan nan nan 0 1 1 2 1 1 nan nan nan nan nan nan nan nan nan nan nan nan nan nan nan nan nan nan nan nan nan nan nan nan nan nan nan nan nan
nan nan nan nan nan nan nan nan nan nan nan nan nan nan nan nan nan nan nan nan nan nan nan nan nan nan nan nan nan nan nan nan nan nan nan nan nan nan nan nan nan nan nan nan nan nan nan nan nan nan nan 1 1 1 1 0 0 nan nan nan nan nan nan nan nan nan nan nan nan nan nan nan nan nan nan nan nan nan nan nan nan nan nan nan nan nan
nan nan nan nan nan nan nan nan nan nan nan nan nan nan nan nan nan nan nan nan nan nan nan nan nan nan nan nan nan nan nan nan nan nan nan nan nan nan nan nan nan nan nan nan nan nan nan nan nan nan nan 1 2 2 nan nan nan nan nan nan nan nan nan nan nan nan nan nan nan nan nan nan nan nan nan nan nan nan nan nan nan nan nan nan nan nan
nan nan nan nan nan nan nan nan nan nan nan nan nan nan nan nan nan nan nan nan nan nan nan nan nan nan nan nan nan nan nan nan nan nan nan nan nan nan nan nan nan nan nan nan nan nan nan nan nan nan nan 0 1 1 0 nan nan nan nan nan nan nan nan nan nan nan nan nan nan nan nan nan nan nan nan nan nan nan nan nan nan nan nan nan nan nan
nan nan nan nan nan nan nan nan nan nan nan nan nan nan nan nan nan nan nan nan nan nan nan nan nan nan nan nan nan nan nan nan nan nan nan nan nan nan nan nan nan nan nan nan nan nan nan nan nan nan nan nan nan nan nan nan nan nan nan nan nan nan nan nan nan nan nan nan nan nan nan nan nan nan nan nan nan nan nan nan nan nan nan nan nan 5
nan nan nan nan nan nan nan nan nan nan nan nan nan nan nan nan nan nan nan nan nan nan nan nan nan nan nan nan nan nan nan nan nan nan nan nan nan nan nan nan nan nan nan nan nan nan nan nan nan nan nan nan nan nan nan nan nan nan nan nan nan nan nan nan nan nan nan nan nan nan nan nan nan nan nan nan nan nan nan nan nan nan nan nan nan nan
nan nan nan nan nan nan nan nan nan nan nan nan nan nan nan nan nan nan nan nan nan nan nan nan nan nan nan nan nan nan nan nan nan nan nan nan nan nan nan nan nan nan nan nan nan nan nan nan nan nan nan 4 nan nan nan nan nan nan nan nan nan nan nan nan nan nan nan nan nan nan nan nan nan nan nan nan nan nan nan nan nan nan nan nan nan nan
CIN
nan nan nan nan nan nan nan nan nan nan nan nan nan nan nan nan nan nan nan nan nan nan nan nan nan nan nan nan nan nan nan nan nan nan nan nan nan nan nan nan nan nan nan nan nan nan nan nan nan nan nan nan nan nan nan nan nan 0 0 0 0 0 0 0 0 nan nan nan nan nan nan nan nan nan nan nan nan nan nan nan nan nan nan nan nan nan
nan nan nan nan nan nan nan nan nan nan nan nan nan nan nan nan nan nan nan nan nan nan nan nan nan nan nan nan nan nan nan nan nan nan nan nan nan nan nan nan nan nan nan nan nan nan nan nan nan nan nan nan nan nan 0 0 0 0 0 0 0 0 0 0 0 nan nan nan nan nan nan nan nan nan nan nan nan nan nan nan nan nan nan nan nan nan
nan nan nan nan nan nan nan nan nan nan nan nan nan nan nan nan nan nan nan nan nan nan nan nan nan nan nan nan nan nan nan nan nan nan nan nan nan nan nan nan nan nan nan nan nan nan nan nan nan nan nan nan nan nan 0 0 0 0 0 0 0 0 0 0 0 nan nan nan nan nan nan nan nan nan 0 0 0 0 0 nan nan nan 0 0 0 0
nan nan nan nan nan nan nan nan nan nan nan nan nan nan nan nan nan nan nan nan nan nan nan nan nan nan nan nan nan nan nan nan nan nan nan nan nan nan nan nan nan nan nan nan nan nan nan nan nan nan nan nan nan nan nan nan nan 0 0 0 0 0 0 0 0 nan nan nan nan nan nan nan nan nan 0 0 0 0 0 0 0 0 0 0 0 0
nan nan nan nan nan nan nan nan nan nan nan nan nan nan nan nan nan nan nan nan nan nan nan nan nan nan nan nan nan nan nan nan nan nan nan nan nan nan nan nan nan nan nan nan nan nan nan nan nan nan nan nan nan nan nan nan nan 0 0 0 0 0 0 0 0 0 0 nan nan nan nan nan nan nan nan 0 0 0 0 0 0 0 0 0 0 0
nan nan nan nan nan nan nan nan nan nan nan nan nan nan nan nan nan nan nan nan nan nan nan nan nan nan nan nan nan nan nan nan nan nan nan nan nan nan nan nan nan nan nan nan nan nan nan nan nan nan nan nan nan nan nan nan nan 0 0 0 0 0 0 0 0 0 0 0 0 0 nan nan nan nan nan 0 0 0 0 0 0 0 0 0 0 0
nan nan nan nan nan nan nan nan nan nan nan nan nan nan nan nan nan nan nan nan nan nan nan nan nan nan nan nan nan nan nan nan nan nan nan nan nan nan nan nan nan nan nan nan nan nan nan nan nan nan nan nan nan nan nan nan nan 0 0 0 0 0 0 0 0 0 0 0 0 0 0 nan nan nan nan nan 0 0 0 0 0 0 0 0 0 0
nan nan nan nan nan nan nan nan nan nan nan nan nan nan nan nan nan nan nan nan nan nan nan nan nan nan nan nan nan nan nan nan nan nan nan nan nan nan nan nan nan nan nan nan nan nan nan nan nan nan nan nan nan nan nan nan nan nan 0 0 0 0 0 0 0 0 0 0 0 0 0 0 0 0 0 nan 0 0 0 0 0 0 nan nan nan nan
nan nan nan nan nan nan nan nan nan nan nan nan nan nan nan nan nan nan nan nan nan nan nan nan nan nan nan nan nan nan nan nan nan nan nan nan nan nan nan nan nan nan nan nan nan nan nan nan nan nan nan nan nan nan nan nan nan nan 0 0 0 0 0 0 0 0 0 0 0 0 0 0 0 0 0 0 0 0 0 0 0 0 0 nan nan nan
nan nan nan nan nan nan nan nan nan nan nan nan nan nan nan nan nan nan nan nan nan nan nan nan nan nan nan nan nan nan nan nan nan nan nan nan nan nan nan nan nan nan nan nan nan nan nan nan nan nan nan nan nan nan nan nan nan nan 0 0 0 0 0 0 0 0 0 0 0 0 0 0 0 0 0 0 0 0 0 0 0 0 0 nan nan nan
nan nan nan nan nan nan nan nan nan nan nan nan nan nan nan nan nan nan nan nan nan nan nan nan nan nan nan nan nan nan nan nan nan nan nan nan nan nan nan nan nan nan nan nan nan nan nan nan nan nan nan nan nan nan nan nan nan nan nan 0 0 0 0 0 0 0 0 0 0 0 0 0 0 0 0 0 0 0 0 0 0 0 0 nan nan nan
nan nan nan nan nan nan nan nan nan nan nan nan nan nan nan nan nan nan nan nan nan nan nan nan nan nan nan nan nan nan nan nan nan nan nan nan nan nan nan nan nan nan nan nan nan nan nan nan nan nan nan nan nan nan nan nan nan nan nan 0 0 0 0 0 0 0 0 0 0 0 0 0 0 0 0 0 0 0 0 0 0 0 0 0 0 nan
nan nan nan nan nan nan nan nan nan nan nan nan nan nan nan nan nan nan nan nan nan nan nan nan nan nan nan nan nan nan nan nan nan nan nan nan nan nan nan nan nan nan nan nan nan nan nan nan nan nan nan nan nan nan nan nan nan nan nan 0 0 0 0 0 0 0 0 0 0 0 0 0 0 0 0 0 0 0 0 0 0 0 0 0 0 0
nan nan nan nan nan nan nan nan nan nan nan nan nan nan nan nan nan nan nan nan nan nan nan nan nan nan nan nan nan nan nan nan nan nan nan nan nan nan nan nan nan nan nan nan nan nan nan nan nan nan nan nan nan nan nan nan nan nan nan 0 0 0 0 0 0 nan nan nan nan nan 0 0 0 0 0 0 0 0 0 0 0 0 0 0 0 0
nan nan nan nan nan nan nan nan nan nan nan nan nan nan nan nan nan nan nan nan nan nan nan nan nan nan nan nan nan nan nan nan nan nan nan nan nan nan nan nan nan nan nan nan nan nan nan nan nan nan nan nan nan nan nan nan nan nan 0 0 0 0 0 nan nan nan nan nan nan nan nan 0 0 0 0 0 0 0 0 0 0 0 0 0 0 0
nan nan nan nan nan nan nan nan nan nan nan nan nan nan nan nan nan nan nan nan nan nan nan nan nan nan nan nan nan nan nan nan nan nan nan nan nan nan nan nan nan nan nan nan nan nan nan nan nan nan nan nan nan nan nan nan nan nan 0 0 0 0 nan nan nan nan nan nan nan nan nan nan 0 0 0 0 0 0 0 0 0 0 0 0 0 0
nan nan nan nan nan nan nan nan nan nan nan nan nan nan nan nan nan nan nan nan nan nan nan nan nan nan nan nan nan nan nan nan nan nan nan nan nan nan nan nan nan nan nan nan nan nan nan nan nan nan nan nan nan nan nan nan nan nan 0 0 0 0 nan nan nan nan nan nan nan nan nan nan nan nan 0 0 0 0 0 0 0 0 0 0 0 0
nan nan nan nan nan nan nan nan nan nan nan nan nan nan nan nan nan nan nan nan nan nan nan nan nan nan nan nan nan nan nan nan nan nan nan nan nan nan nan nan nan nan nan nan nan nan nan nan nan nan nan nan nan nan nan nan nan nan 0 0 0 nan nan nan nan nan nan nan nan nan nan nan nan nan 0 0 0 0 0 0 0 0 0 0 0 0
nan nan nan nan nan nan nan nan nan nan nan nan nan nan nan nan nan nan nan nan nan nan nan nan nan nan nan nan nan nan nan nan nan nan nan nan nan nan nan nan nan nan nan nan nan nan nan nan nan nan nan nan nan nan nan nan nan nan 0 0 0 nan nan nan nan nan nan nan nan nan nan nan nan nan nan 0 0 0 0 0 0 0 0 0 0 0
nan nan nan nan nan nan nan nan nan nan nan nan nan nan nan nan nan nan nan nan nan nan nan nan nan nan nan nan nan nan nan nan nan nan nan nan nan nan nan nan nan nan nan nan nan nan nan nan nan nan nan nan nan nan nan nan nan nan nan nan nan nan nan nan nan nan nan nan nan nan nan nan nan nan nan 0 0 0 0 0 0 0 0 0 0 0
nan nan nan nan nan nan nan nan nan nan nan nan nan nan nan nan nan nan nan nan nan nan nan nan nan nan nan nan nan nan nan nan nan nan nan nan nan nan nan nan nan nan nan nan nan nan nan nan nan nan nan nan nan nan nan nan nan nan nan nan nan nan nan nan nan nan nan nan nan nan nan nan nan nan nan nan 0 0 0 0 0 0 0 0 0 0
nan nan nan nan nan nan nan nan nan nan nan nan nan nan nan nan nan nan nan nan nan nan nan nan nan nan nan nan nan nan nan nan nan nan nan nan nan nan nan nan nan nan nan nan nan nan nan nan nan nan nan nan nan nan nan nan nan nan nan nan nan nan nan nan nan nan nan nan nan nan nan nan nan nan nan nan nan nan 0 0 0 0 0 0 0 0
nan nan nan nan nan nan nan nan nan nan nan nan nan nan nan nan nan nan nan nan nan nan nan nan nan nan nan nan nan nan nan nan nan nan nan nan nan nan nan nan nan nan nan nan nan nan nan nan nan nan nan nan nan nan nan nan nan nan nan nan nan nan nan nan nan nan nan nan nan nan nan nan nan nan nan nan nan nan nan 0 0 0 0 0 0 0
nan nan nan nan nan nan nan nan nan nan nan nan nan nan nan nan nan nan nan nan nan nan nan nan nan nan nan nan nan nan nan nan nan nan nan nan nan nan nan nan nan nan nan nan nan nan nan nan nan nan nan nan nan nan nan nan nan nan nan nan nan nan nan nan nan nan nan nan nan nan nan nan nan nan nan nan nan nan nan nan nan 0 0 0 0 0
nan nan nan nan nan nan nan nan nan nan nan nan nan nan nan nan nan nan nan nan nan nan nan nan nan nan nan nan nan nan nan nan nan nan nan nan nan nan nan nan nan nan nan nan nan nan nan nan nan nan nan nan nan nan nan nan nan nan nan nan nan nan nan nan nan nan nan nan nan nan nan nan nan nan nan nan nan nan nan nan nan 0 0 0 0 0
nan nan nan nan nan nan nan nan nan nan nan nan nan nan nan nan nan nan nan nan nan nan nan nan nan nan nan nan nan nan nan nan nan nan nan nan nan nan nan nan nan nan nan nan nan nan nan nan nan nan nan nan nan nan nan nan nan nan nan nan nan nan nan nan nan nan nan nan nan nan nan nan nan nan nan nan nan nan nan nan nan 0 0 0 0 0
nan nan nan nan nan nan nan nan nan nan nan nan nan nan nan nan nan nan nan nan nan nan nan nan nan nan nan nan nan nan nan nan nan nan nan nan nan nan nan nan nan nan nan nan nan nan nan nan nan nan nan nan nan nan nan nan nan nan nan nan nan nan nan nan nan nan nan nan nan nan nan nan nan nan nan nan nan nan nan nan nan 0 0 0 0 0
nan nan nan nan nan nan nan nan nan nan nan nan nan nan nan nan nan nan nan nan nan nan nan nan nan nan nan nan nan nan nan nan nan nan nan nan nan nan nan nan nan nan nan nan nan nan nan nan nan nan nan nan nan nan nan nan nan nan nan nan nan nan nan nan nan nan nan nan nan nan nan nan nan nan nan nan nan nan nan 0 0 0 0 nan nan nan
0 0 0 0 0 0 nan nan nan nan nan nan nan nan nan nan nan nan nan nan nan nan nan nan nan nan nan nan nan nan nan nan nan nan nan nan nan nan nan nan nan nan nan nan nan nan nan nan nan nan nan nan nan nan nan nan nan nan nan nan nan nan nan nan nan nan nan nan nan nan nan nan nan nan nan nan nan nan nan 0 0 0 -2 nan nan nan
nan nan nan nan nan nan nan nan nan nan nan nan nan nan nan nan nan nan nan nan nan nan nan nan nan nan nan nan nan nan nan nan nan nan nan nan nan nan nan nan nan nan nan nan nan nan nan nan nan nan nan nan nan nan nan nan nan nan nan nan nan nan nan nan nan nan nan nan nan nan nan nan nan nan nan nan nan nan nan 0 0 -0 nan nan nan nan
nan nan nan nan nan nan nan nan nan nan nan nan nan nan nan nan nan nan nan nan nan nan nan nan nan nan nan nan nan nan nan nan nan nan nan nan nan nan nan nan nan nan nan nan nan nan nan nan nan nan nan nan nan nan nan nan nan nan nan nan nan nan nan nan nan nan nan nan nan nan nan nan nan nan nan nan nan nan nan 0 0 -1 nan nan nan nan
nan nan nan nan nan nan nan nan nan nan nan nan nan nan nan nan nan nan nan nan nan nan nan nan nan nan nan nan nan nan nan nan nan nan nan nan nan nan nan nan nan nan nan nan nan nan nan nan nan nan nan nan nan nan nan nan nan nan nan nan nan nan nan nan nan nan nan nan nan nan nan nan nan nan nan nan 0 0 0 0 0 0 nan nan nan nan
nan nan nan nan nan nan nan nan nan nan nan nan nan nan nan nan nan nan nan nan nan nan nan nan nan nan nan nan nan nan nan nan nan nan nan nan nan nan nan nan nan nan nan nan nan nan nan nan nan nan nan nan nan nan nan nan nan nan nan nan nan nan nan nan nan nan nan nan nan nan nan nan nan nan 0 0 0 0 0 0 0 0 -0 nan nan nan
nan nan nan nan nan nan nan nan nan nan nan nan nan nan nan nan nan nan nan nan nan nan nan nan nan nan nan nan nan nan nan nan nan nan nan nan nan nan nan nan nan nan nan nan nan nan nan nan nan nan nan nan nan nan nan nan nan nan nan nan nan nan nan nan nan nan nan nan nan nan nan nan nan nan nan 0 0 0 0 0 0 0 0 nan nan nan
nan nan nan nan nan nan nan nan nan nan nan nan nan nan nan nan nan nan nan nan nan nan nan nan nan nan nan nan nan nan nan nan nan nan nan nan nan nan -8 nan nan nan nan nan nan nan nan nan nan nan nan nan nan nan nan nan nan nan nan nan nan nan nan nan nan nan nan nan nan nan nan nan nan nan nan nan 0 0 0 0 0 0 0 0 0 nan
nan nan nan nan nan nan nan nan nan nan nan nan nan nan nan nan nan nan nan nan nan nan nan nan nan nan nan nan nan nan nan nan nan nan nan nan nan nan -8 -6 -6 nan -8 -6 -6 -6 nan nan nan nan nan nan nan nan nan nan nan nan nan nan nan nan nan nan nan nan nan nan nan nan nan nan nan nan nan -1 0 0 0 0 0 0 0 0 0 0
nan nan nan nan nan nan nan nan nan nan nan nan nan nan nan nan nan nan nan nan nan nan nan nan nan nan nan nan nan nan nan nan nan nan nan nan nan nan -10 -6 -6 -5 -7 -5 -5 -6 nan nan nan nan nan nan nan nan nan nan nan nan nan nan nan nan nan nan nan nan nan nan nan nan nan nan nan nan nan nan nan nan 0 0 0 0 0 0 0 0
nan nan nan nan nan nan nan nan nan nan nan nan nan nan nan nan nan nan nan nan nan nan nan nan nan nan nan nan nan nan nan nan nan nan nan nan nan nan nan nan nan -4 nan nan nan nan nan nan nan nan nan nan nan nan nan nan nan nan nan nan nan nan nan nan nan nan nan nan nan nan nan nan nan nan nan nan nan nan nan nan nan nan nan -1 -1 0
nan nan nan nan nan nan nan nan nan nan nan nan nan nan nan nan nan nan nan nan nan nan nan nan nan nan nan nan nan nan nan nan nan nan nan nan nan nan nan nan nan nan nan nan nan nan nan nan nan nan nan nan nan nan nan nan nan nan nan nan nan nan nan nan nan nan nan nan nan nan nan nan nan nan nan nan nan nan nan nan nan nan nan nan nan nan
nan nan nan nan nan nan nan nan nan nan nan nan nan nan nan nan nan nan nan nan nan nan nan nan nan nan nan nan nan nan nan nan nan nan nan nan nan nan nan nan nan nan nan nan nan nan nan nan nan -6 -4 nan nan nan nan nan nan nan nan nan nan nan nan nan nan nan nan nan nan nan nan nan nan nan nan nan nan nan nan nan nan nan nan nan nan nan
nan nan nan nan nan nan nan nan nan nan nan nan nan nan nan nan nan nan nan nan nan nan nan nan nan nan nan nan nan nan nan nan nan nan nan nan nan nan nan nan nan nan nan nan nan nan nan nan nan nan -7 nan -5 -5 nan nan nan -4 0 nan nan nan nan nan nan nan nan nan nan nan nan nan nan nan nan nan nan nan nan nan nan nan nan nan nan nan
nan nan nan nan nan nan nan nan nan nan nan nan nan nan nan nan nan nan nan nan nan nan nan nan nan nan nan nan nan nan nan nan nan nan nan nan nan nan nan nan nan nan nan nan nan nan nan nan nan nan nan -8 -5 -5 -5 -5 -5 -5 -6 nan nan nan nan nan nan nan nan nan nan nan nan nan nan nan nan nan nan nan nan nan nan nan nan nan nan nan
nan nan nan nan nan nan nan nan nan nan nan nan nan nan nan nan nan nan nan nan nan nan nan nan nan nan nan nan nan nan nan nan nan nan nan nan nan nan nan nan nan nan nan nan nan nan nan nan nan nan nan nan nan nan -5 -4 -4 -5 nan -8 -8 nan nan nan nan nan nan nan nan nan nan nan nan nan nan nan nan nan nan nan nan nan nan nan nan nan
nan nan nan nan nan nan nan nan nan nan nan nan nan nan nan nan nan nan nan nan nan nan nan nan nan nan nan nan nan nan nan nan nan nan nan nan nan nan nan nan nan nan nan nan nan nan nan nan nan nan nan -12 -8 -8 -4 -5 -5 nan nan nan nan nan nan nan nan nan nan nan nan nan nan nan nan nan nan nan nan nan nan nan nan nan nan nan nan nan
nan nan nan nan nan nan nan nan nan nan nan nan nan nan nan nan nan nan nan nan nan nan nan nan nan nan nan nan nan nan nan nan nan nan nan nan nan nan nan nan nan nan nan nan nan nan nan nan nan nan nan -13 -10 -10 -5 -6 -6 nan nan nan nan nan nan nan nan nan nan nan nan nan nan nan nan nan nan nan nan nan nan nan nan nan nan nan nan nan
nan nan nan nan nan nan nan nan nan nan nan nan nan nan nan nan nan nan nan nan nan nan nan nan nan nan nan nan nan nan nan nan nan nan nan nan nan nan nan nan nan nan nan nan nan nan nan nan nan nan nan -9 -8 -8 -8 -10 -10 nan nan nan nan nan nan nan nan nan nan nan nan nan nan nan nan nan nan nan nan nan nan nan nan nan nan nan nan nan
nan nan nan nan nan nan nan nan nan nan nan nan nan nan nan nan nan nan nan nan nan nan nan nan nan nan nan nan nan nan nan nan nan nan nan nan nan nan nan nan nan nan nan nan nan nan nan nan nan nan nan -7 -4 -4 nan nan nan nan nan nan nan nan nan nan nan nan nan nan nan nan nan nan nan nan nan nan nan nan nan nan nan nan nan nan nan nan
nan nan nan nan nan nan nan nan nan nan nan nan nan nan nan nan nan nan nan nan nan nan nan nan nan nan nan nan nan nan nan nan nan nan nan nan nan nan nan nan nan nan nan nan nan nan nan nan nan nan nan -8 -3 -3 -4 nan nan nan nan nan nan nan nan nan nan nan nan nan nan nan nan nan nan nan nan nan nan nan nan nan nan nan nan nan nan nan
nan nan nan nan nan nan nan nan nan nan nan nan nan nan nan nan nan nan nan nan nan nan nan nan nan nan nan nan nan nan nan nan nan nan nan nan nan nan nan nan nan nan nan nan nan nan nan nan nan nan nan nan nan nan nan nan nan nan nan nan nan nan nan nan nan nan nan nan nan nan nan nan nan nan nan nan nan nan nan nan nan nan nan nan nan -17
nan nan nan nan nan nan nan nan nan nan nan nan nan nan nan nan nan nan nan nan nan nan nan nan nan nan nan nan nan nan nan nan nan nan nan nan nan nan nan nan nan nan nan nan nan nan nan nan nan nan nan nan nan nan nan nan nan nan nan nan nan nan nan nan nan nan nan nan nan nan nan nan nan nan nan nan nan nan nan nan nan nan nan nan nan nan
nan nan nan nan nan nan nan nan nan nan nan nan nan nan nan nan nan nan nan nan nan nan nan nan nan nan nan nan nan nan nan nan nan nan nan nan nan nan nan nan nan nan nan nan nan nan nan nan nan nan nan -8 nan nan nan nan nan nan nan nan nan nan nan nan nan nan nan nan nan nan nan nan nan nan nan nan nan nan nan nan nan nan nan nan nan nan
Wind_Speed
2 2 1 1 2 1 1 1 1 2 3 3 3 3 4 5 4 4 4 4 4 4 4 4 5 5 7 10 12 13 13 14 15 17 18 18 18 18 18 18 18 18 18 18 18 18 19 19 19 20 20 21 21 22 22 23 23 23 23 22 22 22 22 23 24 25 26 26 26 26 26 25 25 26 26 26 26 26 27 27 27 27 27 27 28 28
2 2 2 2 2 1 1 1 1 1 2 3 3 3 3 4 4 4 4 4 4 4 4 4 4 5 5 7 10 12 13 13 14 16 17 18 18 18 18 17 17 17 17 18 18 18 18 18 19 19 19 20 20 21 21 22 22 22 22 22 21 22 22 23 24 25 25 26 26 26 25 25 25 25 26 26 26 26 26 27 27 27 27 27 27 27
2 2 3 2 1 1 1 2 1 0 1 1 2 2 2 2 3 3 3 4 4 4 3 3 4 4 5 6 9 11 12 12 13 15 16 17 17 17 17 17 17 17 17 17 17 17 18 18 18 19 19 19 19 20 20 20 21 21 21 21 20 20 21 22 23 24 25 25 25 25 25 25 25 25 26 26 26 26 26 27 27 27 27 27 27 27
2 2 2 2 1 1 1 1 1 1 1 1 1 1 1 1 2 2 2 2 3 3 3 3 3 4 4 5 7 9 11 11 12 14 15 16 16 16 16 16 16 16 16 17 17 17 17 17 18 18 18 19 19 19 19 20 20 20 20 20 19 19 19 20 21 22 23 24 24 25 25 25 25 25 26 26 26 26 27 27 27 27 27 27 27 27
1 2 2 1 1 1 2 1 1 1 1 1 1 1 1 1 1 2 2 2 2 3 3 3 3 3 4 4 6 8 10 10 11 13 14 15 16 16 16 16 16 16 16 16 16 17 17 17 17 18 18 18 19 19 19 19 19 19 19 19 19 18 18 19 20 21 22 23 23 24 24 25 25 25 25 26 26 26 27 27 27 27 27 27 27 27
2 2 1 1 1 2 2 1 1 1 1 1 1 1 1 1 1 2 2 2 2 2 2 2 3 3 4 4 5 7 9 9 10 11 12 14 14 15 15 15 15 15 15 16 16 16 17 17 17 18 18 18 19 19 19 19 19 19 19 19 19 18 18 18 19 20 21 21 22 23 24 24 24 25 25 25 26 26 26 27 27 27 27 27 27 27
2 2 1 1 1 2 2 1 1 1 1 1 1 1 1 1 1 2 2 2 2 2 2 2 3 3 3 4 5 6 7 7 8 9 11 12 13 13 14 14 14 14 15 15 16 16 16 17 17 18 18 18 19 19 19 19 19 19 19 19 19 18 18 18 19 19 20 21 21 22 22 23 23 24 24 25 25 26 26 27 27 27 28 28 28 28
1 2 1 1 2 2 2 2 1 1 1 1 1 1 2 2 2 1 2 2 2 2 2 3 3 3 3 3 4 4 4 4 5 6 8 9 10 11 12 13 13 14 14 14 15 15 16 16 17 17 18 19 19 19 19 19 19 19 19 19 19 18 18 18 18 19 20 21 21 21 22 22 22 23 23 24 24 25 26 26 27 27 28 28 28 28
0 1 1 1 1 1 2 2 2 1 0 1 1 1 1 2 2 2 1 2 2 2 2 3 4 4 3 3 2 2 3 3 3 4 6 6 7 8 10 11 11 12 13 13 14 14 15 16 16 17 18 18 19 19 19 19 19 19 19 19 19 18 18 18 18 19 20 21 21 21 21 22 22 22 22 23 23 24 25 25 26 27 27 28 28 28
1 1 1 1 1 0 0 1 2 1 1 1 1 1 1 2 3 3 3 2 2 2 2 3 3 4 4 3 2 2 2 3 4 6 7 7 8 9 9 9 9 10 11 12 13 13 14 15 16 16 17 18 19 19 19 19 19 19 19 19 19 18 18 18 19 19 20 21 21 22 22 22 22 22 22 22 22 23 24 24 25 26 27 28 28 28
0 1 1 1 1 1 1 1 2 2 1 1 1 1 1 2 3 4 5 4 4 3 2 2 3 3 3 3 2 2 2 3 4 5 7 7 9 9 9 8 8 9 10 10 11 12 13 14 14 15 16 17 18 18 19 19 19 19 19 19 19 18 18 18 19 19 20 21 21 22 22 22 22 22 22 21 21 22 22 23 24 25 26 27 28 28
0 0 0 1 1 1 1 1 2 2 2 2 2 2 2 2 2 2 3 4 5 4 4 3 2 2 2 2 2 2 2 2 3 4 4 5 5 6 6 6 6 7 7 8 9 10 11 12 13 13 14 15 16 17 18 18 18 19 19 19 19 18 18 19 19 19 20 21 22 22 22 23 22 22 22 22 21 21 22 22 23 24 25 26 27 28
0 0 0 1 1 1 1 2 2 2 2 2 2 2 2 2 1 1 1 3 3 4 4 3 3 2 2 1 1 1 2 3 3 4 4 4 4 3 3 3 3 3 3 4 5 6 8 10 11 11 12 13 14 16 17 17 18 19 19 19 19 19 19 19 19 20 20 21 22 22 23 23 23 23 22 22 22 21 21 22 22 23 24 25 26 27
0 1 1 1 1 1 1 1 1 1 1 1 0 0 1 1 1 1 2 3 3 3 3 3 3 3 2 1 1 1 1 3 3 4 4 3 3 3 2 3 3 2 2 2 3 4 6 7 7 8 10 11 12 14 15 16 17 18 18 18 18 18 19 19 19 20 21 21 22 22 23 23 23 23 23 22 22 22 22 22 22 23 23 24 24 25
1 1 1 1 1 1 1 1 0 0 1 1 1 1 1 1 1 2 3 3 3 3 3 3 3 3 2 1 1 1 1 3 4 4 5 4 3 2 2 2 2 2 1 2 3 4 6 5 4 5 6 8 10 12 14 15 16 18 18 18 18 18 19 19 20 20 21 22 22 23 23 23 23 23 23 22 22 22 22 22 22 23 23 23 24 24
2 2 2 1 1 2 2 2 2 1 2 2 1 0 1 1 2 2 2 3 3 3 3 4 4 3 2 1 1 1 2 4 4 5 5 5 3 2 1 1 2 2 2 2 3 3 4 4 4 4 5 8 11 14 16 16 17 17 18 18 18 18 18 19 20 21 22 22 23 23 23 23 23 23 23 22 22 22 22 22 23 23 23 23 24 24
2 2 2 2 2 2 2 2 2 2 2 1 1 1 1 0 1 1 1 2 2 2 3 3 3 4 3 2 1 1 3 4 5 5 5 5 4 2 1 1 1 2 2 2 3 3 3 3 4 4 5 8 12 15 16 16 17 17 17 17 17 18 18 19 20 21 22 23 23 23 23 23 23 23 23 22 22 22 22 22 23 23 24 24 24 24
2 2 2 2 2 2 2 2 2 2 1 1 1 1 1 1 1 1 1 1 1 2 2 2 2 2 4 4 3 3 4 4 5 6 6 5 4 2 1 1 1 2 2 2 3 3 3 3 3 4 5 10 13 15 16 16 17 17 17 17 17 17 18 19 20 21 22 23 23 23 23 23 23 23 23 23 22 22 22 23 23 23 24 24 24 24
2 2 2 2 2 2 2 2 2 2 2 2 1 1 0 1 1 0 1 0 0 0 1 2 2 2 2 4 4 4 4 4 5 5 6 6 5 3 1 0 1 2 2 3 3 3 3 3 4 6 9 11 13 15 16 16 16 16 16 16 17 17 18 19 20 21 22 23 23 23 24 23 23 23 23 23 23 23 23 23 23 24 24 24 24 24
3 3 3 2 2 2 2 2 3 3 3 2 2 1 0 1 1 0 1 1 1 1 1 1 2 2 3 4 4 4 4 4 4 4 4 5 5 3 1 0 1 2 3 3 3 3 3 3 4 6 9 11 13 14 15 15 15 15 15 16 16 17 18 19 20 21 22 22 23 23 23 23 23 23 23 23 23 23 23 23 24 24 24 24 24 24
3 3 4 3 3 2 2 3 4 4 4 3 2 1 1 1 1 1 1 1 1 1 1 1 2 2 3 4 4 4 4 4 3 3 3 4 4 3 1 1 1 3 4 3 3 3 2 3 3 4 6 10 12 14 15 15 15 15 15 16 16 18 19 19 20 21 21 22 22 23 23 23 23 23 23 23 23 23 23 24 24 24 24 24 24 24
4 4 4 4 4 3 3 4 4 4 4 4 3 1 1 1 1 1 1 1 1 1 1 2 2 3 3 3 4 4 3 2 2 2 3 4 4 3 2 1 2 3 4 4 3 2 2 2 3 4 7 10 12 13 14 14 14 14 14 15 17 18 19 20 20 21 21 21 22 22 23 23 23 24 24 24 24 24 24 24 24 24 24 24 24 24
4 4 4 4 4 4 3 3 4 4 4 4 3 3 2 2 2 2 2 1 1 2 2 3 3 3 3 3 3 3 2 1 1 1 1 3 4 4 2 2 3 4 4 4 3 3 3 3 3 5 7 10 12 12 13 13 13 13 14 16 17 18 19 20 20 20 20 21 21 21 22 22 23 23 24 24 24 24 24 24 24 24 24 24 24 23
4 4 4 4 4 4 3 3 3 3 3 3 3 3 3 3 3 2 2 1 1 1 1 2 2 3 2 2 3 2 2 0 1 1 0 3 4 3 3 3 4 4 5 4 4 4 4 4 4 4 5 8 10 11 11 11 12 13 14 16 17 18 19 19 20 20 20 20 20 21 21 22 22 23 23 24 24 24 24 24 24 24 24 24 23 23
4 4 4 4 5 5 4 4 4 4 3 3 3 3 3 3 2 1 1 1 1 0 1 2 3 3 3 2 2 2 2 0 1 1 1 2 3 3 2 2 3 4 5 5 4 5 5 5 4 4 4 5 8 9 10 10 11 13 15 16 17 18 19 19 19 19 19 20 20 20 21 21 22 23 23 23 24 24 24 24 24 24 24 23 22 21
5 5 6 6 7 8 8 7 6 5 4 3 3 3 3 2 1 1 1 1 1 1 2 2 3 3 2 2 2 2 2 1 1 1 1 2 3 3 2 2 2 4 5 5 5 5 5 5 5 4 3 4 5 7 8 10 11 13 15 16 17 18 18 19 19 19 19 19 19 20 20 21 22 22 23 23 23 23 23 24 24 24 23 22 21 19
8 8 9 9 9 9 9 8 6 5 4 3 2 2 2 2 1 1 2 1 0 0 1 2 3 3 2 2 2 2 2 2 1 1 2 1 2 3 3 2 2 3 5 5 5 5 6 6 5 4 4 3 3 5 7 9 11 13 15 16 17 18 18 18 18 18 18 18 19 19 20 21 21 22 22 23 23 23 23 23 23 23 21 19 16 15
9 9 9 9 9 8 7 6 5 5 5 5 5 4 0 1 1 1 3 2 1 1 0 2 3 3 3 2 2 2 2 2 2 1 2 1 1 2 3 2 2 3 4 5 5 5 6 5 5 4 3 3 3 3 6 8 11 13 14 16 16 17 17 17 17 18 18 18 18 19 20 21 21 22 22 22 22 22 22 23 22 21 18 14 10 9
6 6 7 7 6 6 5 4 4 4 4 5 5 4 1 1 1 2 3 2 1 1 1 2 3 3 3 3 3 3 2 2 2 1 2 1 1 2 3 3 2 2 3 5 5 4 4 4 3 3 3 3 3 3 4 7 8 10 11 13 15 15 16 16 17 17 17 17 18 19 20 20 21 21 22 22 22 22 22 22 21 18 13 10 8 7
2 3 3 4 3 3 2 1 1 3 4 4 5 4 2 1 2 3 3 2 1 1 2 3 3 3 3 3 3 3 2 3 2 1 2 0 1 3 2 3 2 2 2 4 4 4 4 3 2 2 2 3 3 4 4 5 6 6 7 10 11 12 14 15 16 16 16 17 18 19 19 20 21 21 21 21 21 21 22 22 19 15 8 7 7 7
2 2 2 2 1 1 0 0 1 1 3 3 4 3 2 2 3 3 3 2 2 2 3 3 3 2 2 2 2 2 2 2 2 2 2 0 2 2 2 3 3 2 0 2 3 5 5 3 2 1 2 3 4 4 5 5 5 5 5 6 7 8 11 13 14 15 15 16 17 18 19 20 20 20 21 21 21 21 21 21 19 14 8 7 7 7
3 2 2 1 1 0 0 0 0 1 1 2 2 2 2 2 3 3 3 3 3 3 3 3 3 3 2 2 3 3 3 2 2 2 1 1 2 2 2 3 3 2 1 1 2 3 5 4 4 3 3 4 4 5 5 5 5 5 5 5 5 6 10 11 12 12 13 14 16 17 18 19 19 20 20 20 20 20 21 21 19 14 9 8 7 8
2 2 1 1 0 0 0 0 0 1 1 2 2 2 3 3 3 4 4 4 4 4 3 3 3 3 3 3 4 4 3 3 3 2 1 1 2 2 2 3 3 3 3 2 2 3 4 5 5 4 4 4 4 4 5 5 5 5 5 5 5 5 8 9 9 10 10 11 12 14 15 16 17 18 19 19 19 19 20 20 19 17 13 9 8 8
2 1 1 1 0 0 1 1 1 2 2 3 3 3 3 3 4 4 4 4 4 4 4 4 4 4 3 3 4 4 4 3 3 3 1 1 1 2 3 3 4 4 4 4 3 3 4 5 5 5 5 5 4 4 4 5 5 5 4 4 4 5 6 7 7 8 9 9 9 9 11 12 13 14 15 16 17 17 18 19 20 19 17 13 10 8
2 1 1 1 1 1 1 2 2 2 3 3 4 4 4 4 4 4 4 4 4 4 4 4 4 4 4 4 4 4 4 3 3 3 2 2 2 3 4 4 4 4 5 5 4 4 4 5 5 6 6 6 5 4 4 4 4 4 3 4 4 5 6 6 6 7 8 8 8 8 8 8 8 9 11 13 14 16 18 19 20 20 20 17 14 10
2 2 2 2 2 2 2 3 3 3 3 4 4 4 4 4 4 4 4 4 4 4 5 5 5 5 5 5 5 5 6 4 4 3 4 3 3 3 4 4 4 4 5 6 5 5 5 6 6 7 7 7 6 5 4 3 3 3 3 4 5 6 6 6 6 6 7 7 8 8 8 8 8 8 9 12 15 17 18 19 19 20 20 19 17 15
2 3 3 3 3 3 3 3 3 3 3 3 4 4 4 4 4 4 4 4 4 4 5 5 5 5 6 6 6 6 6 5 5 5 6 5 4 4 4 5 5 5 5 6 6 6 6 7 7 7 6 6 6 5 4 4 3 4 4 4 5 6 6 6 6 6 6 7 8 9 9 9 9 9 9 13 14 15 16 17 17 17 18 18 18 17
3 3 3 3 3 3 3 3 3 3 3 4 4 4 4 4 4 4 4 4 5 5 4 5 5 6 8 8 8 8 8 7 7 7 7 6 5 5 5 5 6 6 5 6 6 6 6 7 8 8 7 6 7 7 6 5 5 5 5 5 5 6 6 6 6 5 5 7 9 10 10 10 9 9 9 9 9 9 10 10 11 13 15 15 16 17
3 3 3 3 3 3 3 3 3 3 3 4 4 3 3 3 3 4 4 4 5 5 5 5 5 6 7 8 10 10 10 9 9 8 8 7 6 5 5 6 6 5 5 5 5 5 6 7 7 7 7 7 7 7 6 5 5 6 6 6 6 5 5 5 5 5 5 7 9 10 10 9 8 8 7 7 7 7 8 8 9 10 10 9 10 13
4 3 3 3 3 3 4 4 4 3 3 3 2 2 2 2 2 3 3 4 4 5 5 6 6 5 6 7 8 9 9 8 8 7 6 6 5 5 5 6 6 5 5 5 5 5 6 7 8 8 8 7 8 8 7 6 6 7 8 6 5 5 4 4 5 5 5 6 7 8 8 7 7 7 7 7 7 7 8 8 8 9 9 7 7 8
4 3 3 3 3 3 3 4 3 2 2 1 1 1 1 1 2 2 2 2 3 3 4 4 4 4 4 5 5 6 7 7 7 7 6 7 7 7 6 6 6 5 5 5 5 5 6 7 8 9 8 8 9 9 9 8 9 10 10 8 7 6 6 6 7 7 7 6 6 6 7 7 8 8 8 8 8 8 8 9 9 10 9 7 6 6
5 4 4 3 2 2 2 2 2 2 2 1 1 1 2 2 2 2 2 2 2 2 2 2 2 3 4 4 5 5 6 6 7 8 8 8 8 8 7 6 5 5 4 5 5 6 6 7 8 9 8 8 8 9 9 9 9 9 9 9 9 9 8 8 6 5 5 5 5 5 7 7 7 7 8 9 9 9 9 9 11 12 11 9 7 6
4 4 3 2 2 2 2 1 1 1 1 1 2 2 3 2 2 2 2 3 3 3 3 2 3 3 5 5 5 4 5 5 6 7 8 8 8 8 8 7 6 5 5 5 5 5 6 7 8 9 8 8 8 9 10 10 9 9 9 9 8 7 6 5 4 3 4 5 5 5 6 6 7 7 7 8 8 8 9 10 12 13 12 10 8 7
4 3 2 2 2 1 1 1 2 2 2 2 3 3 3 2 2 2 3 3 3 3 3 3 3 3 5 6 6 5 4 4 5 6 7 8 8 8 8 8 7 6 6 5 5 5 5 7 8 8 8 7 8 9 10 10 10 9 8 8 8 8 7 6 5 5 6 6 6 5 6 6 6 7 7 7 7 8 8 8 9 10 10 10 9 9
3 2 2 2 2 2 2 2 2 2 2 3 3 3 3 2 3 3 3 3 3 3 3 2 2 3 5 4 5 5 5 4 4 4 5 7 9 9 8 7 7 6 6 6 6 6 5 6 7 7 7 7 8 9 10 10 10 10 10 9 9 9 9 8 7 6 7 7 7 6 6 5 5 6 7 7 7 8 8 8 9 9 9 9 9 9
2 2 2 2 2 3 3 3 3 2 3 3 3 3 3 2 2 2 3 3 3 3 3 2 2 3 5 5 5 5 5 5 5 4 4 4 5 6 6 7 7 6 6 7 7 7 7 7 7 7 7 8 9 10 10 10 10 11 10 9 8 8 9 8 7 7 8 7 7 6 6 5 5 6 6 7 7 8 8 8 9 9 10 9 9 9
3 3 3 3 3 3 3 3 3 3 3 4 4 4 3 2 2 2 3 3 3 3 3 3 3 4 5 5 5 5 6 6 6 5 4 4 4 4 4 5 6 7 6 7 7 8 9 9 8 8 8 9 10 11 10 10 10 11 11 9 8 7 8 8 7 7 7 7 7 6 5 5 5 6 7 7 8 8 8 8 9 9 9 9 9 10
4 4 4 3 3 3 3 3 3 3 4 4 4 4 3 3 3 3 3 3 3 3 4 3 4 4 5 5 5 5 6 7 7 6 5 5 4 4 4 4 4 5 6 7 8 9 9 10 10 10 9 10 10 11 11 10 10 10 9 8 7 8 9 9 8 7 7 7 7 6 5 5 6 7 7 7 8 8 8 8 9 9 9 9 9 10
4 4 4 4 4 4 4 3 3 4 4 4 4 4 3 4 5 6 5 4 3 3 3 4 4 5 5 6 6 6 7 7 6 6 5 5 4 4 4 3 3 4 4 5 6 7 8 9 11 11 11 10 11 12 12 10 9 9 8 8 7 7 8 9 8 7 7 7 7 7 5 5 6 7 6 7 8 9 9 9 9 10 9 9 8 8
4 4 4 4 4 4 4 4 4 4 5 4 4 4 4 3 4 4 5 4 4 4 4 5 5 6 6 6 6 6 6 7 6 6 5 4 4 4 4 4 4 4 5 4 4 5 5 6 8 10 12 13 13 12 12 10 9 7 7 8 7 7 7 8 8 7 6 8 8 7 6 6 6 6 5 7 9 10 11 10 10 10 8 7 7 7
5 5 4 4 4 5 4 4 4 5 5 5 5 5 4 4 3 4 4 4 4 4 5 5 5 6 7 7 7 7 7 7 7 7 7 5 4 4 5 4 4 4 5 6 5 5 4 4 6 7 9 13 15 15 12 10 8 6 7 8 7 6 6 8 7 7 8 8 7 6 6 6 6 5 5 6 8 10 11 11 10 9 8 7 7 8
Wind_Direction
274 283 300 24 32 17 346 350 13 16 359 350 346 345 346 351 348 345 348 355 355 351 348 346 347 350 354 359 4 9 14 18 19 18 17 16 15 15 14 14 14 14 14 15 15 16 16 16 16 15 15 15 14 14 13 12 11 11 11 12 12 13 13 13 12 11 10 9 9 8 8 8 7 7 7 7 6 6 6 5 4 3 2 2 1 1
311 310 313 10 37 36 332 318 349 32 8 347 338 337 342 344 343 341 344 350 350 346 343 341 343 347 349 351 358 4 10 15 16 16 15 14 13 13 12 12 12 12 13 13 14 14 14 15 15 14 14 13 13 12 12 11 11 10 10 10 11 12 12 12 11 10 9 8 7 7 7 6 6 6 6 6 6 5 5 4 4 3 2 1 1 0
328 326 315 340 25 43 327 314 305 305 3 327 319 322 335 341 341 341 343 343 341 338 335 334 339 342 345 344 352 359 4 10 13 14 13 12 11 10 10 9 9 10 10 11 12 12 13 13 13 13 13 12 11 11 10 10 9 9 8 8 9 10 11 11 11 9 7 6 5 5 5 5 5 5 5 5 5 4 4 4 3 2 1 1 0 360
312 313 303 318 339 351 268 286 291 290 290 296 304 313 340 343 336 330 328 329 331 330 327 326 332 338 340 339 344 351 358 5 9 10 10 9 8 7 6 6 6 7 8 8 9 10 11 11 11 11 11 10 9 9 8 8 8 7 7 7 7 9 10 11 10 9 7 5 4 3 3 3 3 3 3 3 3 3 3 3 2 2 1 0 360 359
279 275 281 304 316 306 277 275 283 294 304 312 322 333 355 339 318 311 311 322 329 329 325 325 329 333 335 334 337 343 352 360 4 6 6 5 4 3 3 3 3 3 4 5 7 8 8 9 9 10 9 8 8 7 6 6 6 6 5 5 5 6 8 9 9 8 6 5 3 2 2 1 2 2 2 2 2 2 2 2 1 1 0 360 359 358
269 264 273 288 294 292 294 300 312 322 327 334 338 341 347 325 315 315 319 329 332 329 323 322 321 322 323 323 330 337 345 352 356 359 360 360 359 359 358 359 359 359 0 2 3 4 6 6 7 7 7 6 5 5 4 4 4 3 3 3 3 4 5 6 6 6 5 4 3 2 1 0 360 360 360 360 360 0 0 0 360 360 359 359 358 357
279 283 303 303 292 289 300 310 326 345 359 347 343 341 343 334 327 321 315 319 320 320 320 318 317 317 317 318 325 333 340 344 347 349 352 353 353 353 353 353 354 355 356 358 360 1 2 3 4 4 4 3 3 2 2 1 1 1 2 1 1 1 2 3 3 3 3 3 2 1 0 359 359 358 358 358 358 358 358 358 358 358 358 357 357 356
297 310 330 335 329 320 317 315 320 340 21 11 356 349 345 343 336 319 304 308 311 319 328 330 330 327 320 318 325 332 335 337 337 339 343 345 345 346 347 347 348 349 351 353 355 357 359 360 1 1 1 0 360 359 359 359 359 359 359 360 360 360 0 0 1 1 0 0 360 360 360 359 358 357 356 356 356 356 356 356 356 356 356 355 355 355
264 313 321 334 345 343 333 320 312 311 26 70 60 21 354 348 343 335 331 327 327 332 340 342 339 332 321 317 325 333 330 328 330 335 341 341 340 340 340 340 341 343 345 348 350 353 354 356 357 358 358 357 356 356 356 356 356 356 357 358 358 358 358 358 358 358 358 358 358 358 358 357 357 356 355 355 354 354 354 354 354 354 354 353 353 353
174 247 290 291 278 202 299 300 298 303 3 84 111 115 75 2 353 349 352 348 345 345 350 347 339 330 321 321 328 338 334 326 331 338 344 338 334 333 331 330 332 335 338 341 344 347 349 351 353 354 354 354 353 352 352 352 353 354 355 356 356 356 356 356 356 356 355 355 355 355 355 355 355 355 354 354 353 353 353 353 353 352 352 352 351 351
187 231 268 286 283 257 203 255 276 296 347 41 69 78 74 29 9 358 350 345 345 348 351 344 333 323 316 318 326 339 342 330 330 335 339 333 329 326 323 321 322 324 328 332 336 339 342 345 348 349 350 349 348 348 348 349 350 351 352 353 354 355 355 354 354 353 353 353 353 353 353 353 353 353 353 352 352 352 351 351 351 351 351 350 349 349
172 215 264 302 316 318 310 292 297 317 355 23 25 15 4 18 22 9 349 339 338 340 340 334 322 305 289 294 310 330 337 336 335 334 332 326 322 318 315 315 315 317 321 323 325 329 333 338 341 343 344 343 343 343 344 345 346 348 349 351 352 352 352 352 352 351 351 351 351 351 351 351 351 351 351 351 350 350 350 350 350 350 349 349 348 347
138 99 56 8 351 340 334 332 339 351 10 30 28 9 344 344 356 3 340 327 327 328 330 328 320 302 268 247 251 314 325 332 333 333 332 325 318 312 309 309 307 307 311 314 314 317 324 330 334 337 337 336 337 338 340 342 343 345 347 348 350 350 350 350 350 349 349 349 348 348 349 349 349 349 349 349 348 348 348 348 348 348 348 348 347 346
87 59 53 30 359 332 321 354 10 8 356 28 68 264 277 298 325 342 337 326 321 318 319 321 316 306 283 261 203 210 307 331 334 334 333 323 311 300 299 299 296 295 296 304 303 305 311 320 325 328 329 329 331 333 336 339 341 343 345 346 347 348 348 348 347 347 347 346 346 346 346 347 347 347 347 347 347 346 346 347 347 347 347 347 346 345
135 105 79 47 309 275 252 200 173 204 241 230 221 223 257 306 338 348 347 335 327 323 327 325 318 307 289 275 235 221 321 343 340 335 330 320 305 285 274 287 288 287 288 299 297 298 303 309 310 310 314 319 324 330 334 337 339 341 342 344 345 346 346 346 345 345 344 344 344 344 344 345 345 345 345 345 345 345 345 345 345 345 345 345 345 344
148 134 132 174 228 242 231 203 195 208 228 227 217 194 21 345 342 344 345 330 327 331 342 341 337 329 308 271 227 217 359 352 342 332 326 318 308 283 219 274 291 291 290 292 293 294 298 299 298 298 302 316 324 329 332 334 336 339 340 342 343 344 345 344 343 343 342 342 342 342 342 342 343 343 343 343 343 343 343 343 343 343 343 343 343 343
148 148 156 177 212 232 233 213 205 207 218 222 208 183 154 265 308 316 321 319 328 339 349 351 344 335 324 321 321 41 20 355 339 327 321 315 307 285 187 214 275 289 292 289 285 287 292 295 296 297 300 315 323 328 330 332 334 336 339 340 342 343 343 342 341 341 340 340 340 340 340 340 341 341 341 341 342 342 342 342 342 342 342 342 342 342
158 162 162 178 204 220 222 217 215 214 206 209 211 210 196 204 214 237 278 314 336 344 343 346 338 325 319 317 322 344 13 354 336 324 318 313 306 294 199 184 231 269 282 283 280 277 278 282 285 292 301 317 322 325 328 330 332 335 337 339 341 342 342 341 340 339 338 338 337 338 338 338 339 339 340 340 340 340 340 340 340 340 340 340 340 340
175 176 170 184 200 209 208 211 207 202 193 195 195 202 252 242 225 205 215 204 246 315 322 320 310 299 297 297 308 329 358 347 332 321 315 311 309 307 302 203 251 273 282 282 277 271 269 270 278 289 300 312 318 321 325 328 330 334 337 339 340 340 340 339 338 337 336 335 335 335 336 336 337 337 338 338 339 339 339 339 339 339 339 339 339 339
178 187 188 184 181 185 212 219 211 199 190 182 170 158 230 247 244 220 222 210 206 209 225 277 288 288 288 294 306 321 341 340 331 318 309 305 304 304 303 298 299 298 298 285 274 266 265 268 280 291 300 306 312 317 322 325 329 332 336 338 339 339 338 337 336 335 334 333 333 333 333 334 335 335 336 336 337 338 338 338 338 338 338 338 338 338
177 199 207 181 163 164 204 219 215 203 185 159 139 128 189 220 235 237 232 227 226 232 245 269 275 281 288 296 304 313 328 333 327 316 306 302 301 298 289 283 305 310 306 293 278 265 262 269 273 280 288 301 308 313 318 323 327 331 335 336 337 337 336 335 333 333 332 332 331 331 332 332 333 333 334 335 335 336 337 337 337 337 337 337 337 337
177 201 209 185 172 171 191 205 207 198 174 149 141 150 195 204 232 250 246 240 248 258 265 266 267 271 278 285 291 296 306 308 303 300 303 302 300 299 297 305 314 314 309 303 295 283 272 274 274 278 283 294 302 309 315 320 326 330 334 334 335 334 333 332 331 330 330 330 330 330 330 330 331 331 332 333 334 334 335 336 336 336 336 336 336 336
174 189 193 188 186 186 189 196 199 193 173 162 166 179 187 188 204 220 228 226 235 246 253 257 262 265 267 271 278 282 281 255 216 233 289 292 296 302 317 326 322 315 308 308 307 305 298 288 279 277 280 291 298 304 311 318 324 329 332 332 331 331 330 329 328 328 327 327 328 328 328 328 329 329 330 331 332 333 333 334 334 335 335 335 335 335
175 180 179 187 193 198 193 197 199 195 183 183 189 197 199 195 196 198 198 197 205 223 249 276 290 293 284 278 278 280 274 188 129 126 235 277 287 297 318 328 322 314 307 308 309 310 308 297 284 273 273 285 293 300 308 316 323 327 329 329 328 327 326 326 325 325 325 325 325 326 326 327 327 327 328 329 330 331 332 332 333 333 334 334 334 334
180 181 182 188 193 197 199 205 206 201 190 192 201 209 212 207 199 175 117 123 123 85 4 339 322 309 299 298 293 284 274 192 128 135 225 271 282 291 305 316 315 310 307 309 311 312 309 302 294 285 275 281 289 297 305 314 320 324 326 325 324 323 322 322 322 322 322 323 323 324 324 325 325 325 326 326 327 328 329 330 331 332 332 333 333 333
191 193 194 196 199 203 208 215 220 221 216 201 195 194 189 172 133 61 28 21 26 26 9 336 313 299 293 294 287 282 280 269 200 177 203 257 281 291 297 304 308 307 306 308 311 312 308 304 300 295 285 280 285 293 302 311 317 321 321 321 320 319 319 319 319 319 319 320 321 322 322 322 323 323 323 324 325 326 327 328 329 330 331 331 331 331
203 205 206 207 209 213 219 228 241 256 269 266 256 220 157 124 87 18 322 290 274 58 4 313 300 295 293 286 275 273 279 279 252 207 181 234 277 287 292 298 304 307 306 304 305 305 302 299 297 293 287 276 275 286 299 308 313 316 317 316 315 315 315 315 315 316 317 318 319 320 320 320 320 321 321 322 323 324 325 326 327 328 329 330 330 329
216 217 218 219 222 227 233 243 254 267 279 288 293 296 316 99 76 299 274 252 213 152 235 274 285 291 294 288 281 277 275 268 250 208 140 147 263 277 283 293 301 307 307 302 299 295 290 286 284 282 278 274 272 281 295 305 309 311 311 311 311 311 311 312 312 313 314 316 317 318 318 318 318 318 319 320 320 321 322 324 325 326 328 328 327 324
239 237 236 237 240 243 246 255 264 271 277 284 290 295 309 132 173 229 240 218 190 194 248 256 265 274 283 286 288 284 272 256 240 178 119 114 263 272 282 295 303 310 314 305 300 293 278 270 266 266 269 280 287 292 296 304 305 305 305 306 307 307 308 309 310 311 313 314 315 315 315 315 315 316 316 317 318 319 320 322 323 324 326 326 324 321
269 265 263 264 265 264 261 269 275 275 278 279 282 285 286 175 182 201 210 185 182 217 252 258 260 265 277 293 297 291 272 257 235 174 119 94 287 285 298 300 304 313 329 315 309 303 292 275 258 252 269 296 305 307 304 304 301 299 299 302 303 304 305 307 308 310 311 312 312 312 312 312 313 313 314 314 315 316 318 320 321 322 322 321 320 319
217 220 237 263 282 309 47 172 245 269 277 278 279 278 269 197 188 192 192 181 187 207 235 249 254 257 263 286 293 291 278 264 233 188 128 210 287 289 307 300 298 300 354 324 314 309 306 298 284 271 292 308 310 308 305 304 303 300 298 300 300 301 304 306 308 309 310 309 309 309 309 309 310 310 310 311 312 314 315 317 319 320 319 319 318 316
195 195 208 221 228 66 116 185 230 259 269 269 265 256 240 218 205 197 192 189 191 199 216 235 243 244 236 243 255 266 273 268 241 206 150 254 275 278 286 290 294 296 282 268 281 291 298 300 302 305 308 307 305 303 301 302 301 301 300 301 300 301 305 307 308 308 307 307 307 307 306 306 306 306 307 308 309 310 312 314 316 317 318 317 316 314
189 190 199 204 213 322 242 228 235 239 241 240 239 237 235 227 219 211 203 196 194 196 206 223 235 241 238 238 244 252 261 263 255 245 224 243 269 277 280 288 293 297 295 275 259 261 273 285 295 302 300 297 296 296 297 298 297 297 299 301 301 302 306 308 308 306 305 305 305 304 304 303 303 303 303 304 305 307 309 311 313 314 316 315 313 311
181 186 193 200 234 266 262 250 236 233 232 231 230 228 226 225 223 219 214 206 200 198 201 210 222 233 241 246 252 255 259 252 247 239 199 189 256 279 288 288 291 294 295 286 277 270 268 275 286 295 297 294 291 289 292 291 291 290 291 294 297 300 305 308 307 304 303 304 303 302 302 300 299 299 299 300 301 303 305 308 310 311 311 310 309 308
176 189 197 201 215 230 244 243 238 232 229 230 229 227 222 219 219 219 218 213 209 205 204 206 212 219 227 241 254 262 265 254 243 234 219 230 262 279 285 282 285 288 289 286 284 283 280 280 284 290 296 296 293 287 281 280 282 284 285 287 290 294 298 302 302 302 302 303 302 300 300 298 296 295 295 296 298 300 303 306 307 308 308 307 305 303
179 198 207 204 206 213 222 227 227 227 228 228 227 225 221 218 217 217 218 217 216 216 216 216 217 217 219 228 242 255 264 263 259 256 258 258 265 273 278 276 278 281 283 282 283 283 285 287 288 289 291 292 293 290 283 279 281 286 289 288 288 288 289 291 293 295 299 301 301 300 300 299 296 294 293 297 299 301 303 304 305 304 304 303 302 300
187 202 208 201 200 204 211 214 215 218 222 224 224 222 219 218 217 218 220 218 219 222 226 228 229 229 228 230 236 245 257 261 260 258 256 255 255 259 265 270 271 271 273 279 282 284 285 287 289 289 285 283 285 291 296 297 295 291 288 286 284 283 284 285 286 288 293 295 296 297 298 298 298 297 297 299 301 302 303 302 301 301 300 299 299 298
197 206 209 202 198 199 204 209 212 215 217 218 218 217 215 216 216 218 221 221 221 222 228 233 237 239 237 239 241 245 251 254 254 252 248 246 244 245 254 263 265 264 262 270 276 280 282 283 285 287 285 280 279 283 291 296 295 291 286 281 278 277 278 279 280 282 286 290 293 294 294 296 297 298 299 302 303 304 302 300 299 298 298 298 297 296
207 213 215 210 205 203 207 212 216 216 215 214 212 211 208 213 218 220 222 223 223 224 226 232 239 242 241 243 245 247 250 251 250 249 246 242 238 238 245 256 261 261 257 258 262 267 270 272 275 278 283 284 284 283 284 285 287 287 288 285 279 272 269 273 276 280 284 288 290 291 291 292 294 296 297 299 301 302 301 301 301 300 300 299 297 295
215 220 224 221 213 208 208 214 216 213 208 209 208 207 205 224 231 231 227 227 230 231 230 232 238 244 246 247 248 249 249 249 249 247 245 239 233 230 235 245 254 258 258 253 251 252 257 263 267 268 271 278 283 285 285 282 282 284 287 287 283 277 272 278 281 282 279 277 279 282 285 286 288 291 294 296 298 299 300 300 300 300 300 300 299 298
220 227 231 228 221 215 215 215 212 201 187 183 188 202 220 239 252 256 250 243 242 242 241 240 246 252 253 249 246 245 245 245 244 243 241 237 232 229 230 238 245 252 255 253 249 246 247 258 264 267 267 272 277 279 279 278 279 281 282 281 282 283 284 282 279 276 272 268 266 270 277 283 288 290 293 294 294 293 293 294 295 296 296 293 290 291
230 235 237 232 225 218 214 205 193 178 167 169 195 219 228 234 246 257 267 267 264 258 250 249 263 271 273 264 253 243 239 238 236 235 235 233 230 229 230 234 238 242 246 252 252 248 245 252 259 264 267 269 273 275 276 276 276 275 274 277 282 286 285 276 269 264 265 266 265 269 276 282 286 289 290 289 289 289 289 289 289 290 291 290 287 284
234 237 237 231 221 209 198 192 188 189 188 212 229 233 227 224 232 246 261 265 268 268 265 262 266 273 278 278 273 262 248 236 230 228 229 228 226 225 228 231 232 232 232 244 251 252 247 247 253 259 264 265 267 269 274 277 277 274 271 274 279 285 284 276 269 264 264 269 270 272 274 277 279 281 282 283 284 285 286 285 285 285 286 287 286 283
233 236 232 222 212 201 199 206 211 215 220 232 239 241 235 222 226 240 256 260 262 264 266 266 268 271 273 276 278 278 269 250 232 225 227 226 222 219 223 226 227 224 219 228 242 254 257 252 252 254 259 261 263 265 268 273 274 274 272 272 271 271 270 276 280 281 276 273 271 269 267 271 274 277 277 278 279 279 279 279 279 280 281 281 280 280
227 231 230 221 215 215 222 223 223 224 228 236 242 246 245 229 227 233 244 255 259 261 259 264 274 277 273 272 275 279 281 274 259 244 238 234 228 223 219 221 222 221 218 223 230 240 251 257 258 259 258 258 260 263 267 271 273 274 273 272 270 268 265 269 273 276 275 274 271 267 263 265 270 273 275 274 273 273 272 274 276 277 278 277 277 277
228 234 236 230 228 231 235 232 231 233 241 245 248 250 248 234 225 227 236 245 253 257 254 246 252 265 272 276 279 282 284 283 278 270 260 249 236 225 217 218 219 219 219 224 228 232 237 247 256 263 265 264 262 262 262 267 272 274 273 271 271 270 270 268 266 264 265 268 269 267 263 262 264 267 269 271 271 271 270 270 271 273 275 274 274 274
228 233 235 235 237 238 240 237 238 243 250 251 252 251 249 238 230 230 235 236 243 251 256 246 242 249 262 271 275 278 279 281 281 279 273 265 253 238 224 223 222 222 222 226 229 232 235 240 245 252 260 265 266 264 261 262 264 268 271 271 269 269 270 268 265 261 260 263 265 265 264 263 263 264 265 268 270 271 271 270 269 269 270 270 270 270
227 231 234 236 239 242 245 241 240 245 252 255 256 254 249 237 234 237 241 232 233 242 253 252 249 251 258 263 265 266 270 274 276 277 276 272 266 256 241 234 230 228 229 230 233 236 238 238 239 240 245 255 262 265 265 261 260 262 266 267 266 266 267 268 266 263 261 261 261 261 259 258 260 262 266 268 269 270 272 272 271 268 265 264 264 263
226 228 230 233 237 242 245 241 241 244 249 254 257 256 251 241 239 241 242 234 229 232 241 248 253 257 260 261 262 263 265 269 272 274 274 273 272 270 262 252 245 243 243 239 239 240 243 241 237 234 232 239 249 258 262 259 258 259 264 264 263 261 264 266 266 265 263 263 262 259 253 252 251 253 260 265 268 270 272 272 270 267 264 261 259 259
227 226 226 229 233 238 241 239 239 242 246 249 251 254 253 244 237 234 235 233 233 234 237 243 249 255 260 262 263 264 265 269 272 274 273 272 272 273 272 268 266 267 267 261 256 253 254 253 244 235 227 227 235 246 256 257 256 254 258 259 259 258 259 263 264 263 261 262 261 258 252 250 249 248 251 260 266 269 271 271 270 269 267 263 261 261
229 228 225 226 231 235 237 234 235 239 243 244 247 249 250 247 242 238 234 235 237 240 242 242 245 251 258 262 264 265 266 270 273 274 274 273 273 273 273 273 274 275 277 277 274 271 270 274 270 258 238 228 228 233 246 252 253 251 252 254 255 255 257 260 261 260 258 260 260 259 254 252 250 249 247 256 265 270 272 272 271 271 270 269 268 268